Time,TemperatureF,DewpointF,PressureIn,WindDirection,WindDirectionDegrees,WindSpeedMPH,WindSpeedGustMPH,Humidity,HourlyPrecipIn,Conditions,Clouds,dailyrainin,SoftwareType,DateUTC
2013-08-05 00:09:00,66.8,64.0,30.03,NNW,343,0.0,1.0,89,0.00,,,0.00,weatherlink.com 1.10,2013-08-05 04:09:00,
2013-08-05 00:24:00,66.6,63.0,30.03,NNW,343,0.0,0.0,88,0.00,,,0.00,weatherlink.com 1.10,2013-08-05 04:24:00,
2013-08-05 00:39:00,66.3,63.0,30.03,NNW,343,0.0,0.0,88,0.00,,,0.00,weatherlink.com 1.10,2013-08-05 04:39:00,
2013-08-05 00:54:00,66.2,62.0,30.03,NE,36,0.0,1.0,86,0.00,,,0.00,weatherlink.com 1.10,2013-08-05 04:54:00,
2013-08-05 01:09:00,66.3,62.0,30.02,NNW,346,0.0,2.0,86,0.00,,,0.00,weatherlink.com 1.10,2013-08-05 05:09:00,
2013-08-05 01:24:00,66.1,62.0,30.02,NNW,346,0.0,0.0,87,0.00,,,0.00,weatherlink.com 1.10,2013-08-05 05:24:00,
2013-08-05 01:39:00,65.8,62.0,30.02,NNW,346,1.0,1.0,87,0.00,,,0.00,weatherlink.com 1.10,2013-08-05 05:39:00,
2013-08-05 01:54:00,65.5,62.0,30.03,NNW,338,0.0,0.0,88,0.00,,,0.00,weatherlink.com 1.10,2013-08-05 05:54:00,
2013-08-05 02:09:00,64.9,61.0,30.03,NNW,338,0.0,1.0,88,0.00,,,0.00,weatherlink.com 1.10,2013-08-05 06:09:00,
2013-08-05 02:24:00,64.2,61.0,30.03,NNW,338,0.0,0.0,90,0.00,,,0.00,weatherlink.com 1.10,2013-08-05 06:24:00,
2013-08-05 02:39:00,63.9,61.0,30.03,NNW,338,0.0,0.0,90,0.00,,,0.00,weatherlink.com 1.10,2013-08-05 06:39:00,
2013-08-05 02:54:00,63.8,61.0,30.03,NNW,338,0.0,1.0,90,0.00,,,0.00,weatherlink.com 1.10,2013-08-05 06:54:00,
2013-08-05 03:09:00,63.6,60.0,30.03,NNW,338,0.0,1.0,89,0.00,,,0.00,weatherlink.com 1.10,2013-08-05 07:09:00,
2013-08-05 03:24:00,63.4,60.0,30.03,NNW,338,0.0,1.0,89,0.00,,,0.00,weatherlink.com 1.10,2013-08-05 07:24:00,
2013-08-05 03:39:00,63.3,60.0,30.02,NNW,344,0.0,1.0,88,0.00,,,0.00,weatherlink.com 1.10,2013-08-05 07:39:00,
2013-08-05 03:54:00,63.7,60.0,30.03,NNE,20,0.0,0.0,87,0.00,,,0.00,weatherlink.com 1.10,2013-08-05 07:54:00,
2013-08-05 04:09:00,63.4,60.0,30.03,NNE,20,0.0,0.0,88,0.00,,,0.00,weatherlink.com 1.10,2013-08-05 08:09:00,
2013-08-05 04:24:00,63.2,60.0,30.03,NNE,20,0.0,0.0,88,0.00,,,0.00,weatherlink.com 1.10,2013-08-05 08:24:00,
2013-08-05 04:39:00,62.9,60.0,30.02,NNE,20,0.0,0.0,89,0.00,,,0.00,weatherlink.com 1.10,2013-08-05 08:39:00,
2013-08-05 04:54:00,62.6,60.0,30.02,NNE,20,0.0,0.0,90,0.00,,,0.00,weatherlink.com 1.10,2013-08-05 08:54:00,
2013-08-05 05:09:00,62.5,60.0,30.03,NNE,20,1.0,1.0,91,0.00,,,0.00,weatherlink.com 1.10,2013-08-05 09:09:00,
2013-08-05 05:39:00,62.5,60.0,30.03,NNE,20,0.0,0.0,90,0.00,,,0.00,weatherlink.com 1.10,2013-08-05 09:39:00,
2013-08-05 05:54:00,62.2,60.0,30.03,NNE,20,1.0,1.0,91,0.00,,,0.00,weatherlink.com 1.10,2013-08-05 09:54:00,
2013-08-05 06:25:00,61.5,59.0,30.04,NNE,20,0.0,1.0,92,0.00,,,0.00,weatherlink.com 1.10,2013-08-05 10:25:00,
2013-08-05 06:40:00,61.2,59.0,30.04,NNE,20,0.0,0.0,92,0.00,,,0.00,weatherlink.com 1.10,2013-08-05 10:40:00,
2013-08-05 06:54:00,60.9,59.0,30.05,NNE,20,0.0,0.0,93,0.00,,,0.00,weatherlink.com 1.10,2013-08-05 10:54:00,
2013-08-05 07:10:00,60.9,59.0,30.06,NNE,20,0.0,0.0,94,0.00,,,0.00,weatherlink.com 1.10,2013-08-05 11:10:00,
2013-08-05 07:25:00,61.1,59.0,30.06,NNE,20,0.0,0.0,94,0.00,,,0.00,weatherlink.com 1.10,2013-08-05 11:25:00,
2013-08-05 07:39:00,61.9,60.0,30.06,NNE,20,0.0,0.0,94,0.00,,,0.00,weatherlink.com 1.10,2013-08-05 11:39:00,
2013-08-05 07:55:00,63.0,61.0,30.07,NNE,20,0.0,1.0,93,0.00,,,0.00,weatherlink.com 1.10,2013-08-05 11:55:00,
2013-08-05 08:10:00,64.0,61.0,30.07,NNE,18,0.0,1.0,91,0.00,,,0.00,weatherlink.com 1.10,2013-08-05 12:10:00,
2013-08-05 08:25:00,65.4,62.0,30.07,NNE,18,0.0,0.0,88,0.00,,,0.00,weatherlink.com 1.10,2013-08-05 12:25:00,
2013-08-05 08:55:00,68.6,62.0,30.07,SSW,204,1.0,4.0,79,0.00,,,0.00,weatherlink.com 1.10,2013-08-05 12:55:00,
2013-08-05 09:10:00,70.7,62.0,30.08,NNW,336,0.0,4.0,73,0.00,,,0.00,weatherlink.com 1.10,2013-08-05 13:10:00,
2013-08-05 09:25:00,72.2,61.0,30.08,North,355,1.0,3.0,69,0.00,,,0.00,weatherlink.com 1.10,2013-08-05 13:25:00,
2013-08-05 09:40:00,72.4,60.0,30.07,NE,43,1.0,7.0,66,0.00,,,0.00,weatherlink.com 1.10,2013-08-05 13:40:00,
2013-08-05 10:10:00,74.0,62.0,30.08,East,82,0.0,5.0,67,0.00,,,0.00,weatherlink.com 1.10,2013-08-05 14:10:00,
2013-08-05 10:25:00,74.6,62.0,30.08,SSW,213,1.0,6.0,64,0.00,,,0.00,weatherlink.com 1.10,2013-08-05 14:25:00,
2013-08-05 10:55:00,76.0,62.0,30.09,East,82,6.0,8.0,62,0.00,,,0.00,weatherlink.com 1.10,2013-08-05 14:55:00,
2013-08-05 11:10:00,76.4,63.0,30.08,SSW,201,2.0,5.0,63,0.00,,,0.00,weatherlink.com 1.10,2013-08-05 15:10:00,
2013-08-05 11:25:00,77.5,62.0,30.08,North,5,3.0,5.0,60,0.00,,,0.00,weatherlink.com 1.10,2013-08-05 15:25:00,
2013-08-05 11:40:00,78.7,63.0,30.08,NNE,27,0.0,7.0,59,0.00,,,0.00,weatherlink.com 1.10,2013-08-05 15:40:00,
2013-08-05 11:55:00,79.8,64.0,30.08,SW,229,3.0,5.0,59,0.00,,,0.00,weatherlink.com 1.10,2013-08-05 15:55:00,
2013-08-05 12:10:00,80.3,63.0,30.07,East,81,2.0,7.0,56,0.00,,,0.00,weatherlink.com 1.10,2013-08-05 16:10:00,
2013-08-05 12:25:00,79.7,64.0,30.07,SSW,201,1.0,7.0,58,0.00,,,0.00,weatherlink.com 1.10,2013-08-05 16:25:00,
2013-08-05 13:25:00,79.6,65.0,30.04,South,181,0.0,4.0,61,0.00,,,0.00,weatherlink.com 1.10,2013-08-05 17:25:00,
2013-08-05 13:40:00,80.9,65.0,30.04,NE,42,0.0,5.0,59,0.00,,,0.00,weatherlink.com 1.10,2013-08-05 17:40:00,
2013-08-05 13:55:00,80.9,65.0,30.03,North,5,0.0,4.0,59,0.00,,,0.00,weatherlink.com 1.10,2013-08-05 17:55:00,
2013-08-05 14:10:00,79.7,66.0,30.04,ENE,69,2.0,5.0,63,0.00,,,0.00,weatherlink.com 1.10,2013-08-05 18:10:00,
2013-08-05 14:25:00,79.1,66.0,30.03,South,183,1.0,5.0,65,0.00,,,0.00,weatherlink.com 1.10,2013-08-05 18:25:00,
2013-08-05 14:40:00,78.1,66.0,30.02,NW,326,0.0,4.0,66,0.00,,,0.00,weatherlink.com 1.10,2013-08-05 18:40:00,
2013-08-05 14:55:00,78.1,65.0,30.02,SW,235,3.0,3.0,65,0.00,,,0.00,weatherlink.com 1.10,2013-08-05 18:55:00,
2013-08-05 15:10:00,79.3,65.0,30.00,South,186,0.0,6.0,62,0.00,,,0.00,weatherlink.com 1.10,2013-08-05 19:10:00,
2013-08-05 15:25:00,80.7,65.0,30.00,SSE,167,1.0,5.0,60,0.00,,,0.00,weatherlink.com 1.10,2013-08-05 19:25:00,
2013-08-05 15:40:00,80.5,66.0,30.00,SSE,163,1.0,6.0,61,0.00,,,0.00,weatherlink.com 1.10,2013-08-05 19:40:00,
2013-08-05 15:55:00,81.0,65.0,30.00,SSW,200,1.0,3.0,58,0.00,,,0.00,weatherlink.com 1.10,2013-08-05 19:55:00,
2013-08-05 16:10:00,81.7,66.0,30.00,South,170,1.0,3.0,60,0.00,,,0.00,weatherlink.com 1.10,2013-08-05 20:10:00,
2013-08-05 16:25:00,83.3,68.0,30.00,SSW,198,1.0,3.0,60,0.00,,,0.00,weatherlink.com 1.10,2013-08-05 20:25:00,
2013-08-05 16:55:00,82.9,67.0,29.99,South,182,2.0,5.0,58,0.00,,,0.00,weatherlink.com 1.10,2013-08-05 20:55:00,
2013-08-05 17:10:00,81.7,67.0,29.99,South,182,2.0,4.0,61,0.00,,,0.00,weatherlink.com 1.10,2013-08-05 21:10:00,
2013-08-05 17:25:00,81.5,67.0,29.99,West,268,1.0,4.0,61,0.00,,,0.00,weatherlink.com 1.10,2013-08-05 21:25:00,
2013-08-05 17:40:00,81.7,66.0,29.99,NNE,15,2.0,7.0,59,0.00,,,0.00,weatherlink.com 1.10,2013-08-05 21:40:00,
2013-08-05 17:55:00,81.9,67.0,29.99,ESE,112,1.0,5.0,60,0.00,,,0.00,weatherlink.com 1.10,2013-08-05 21:55:00,
2013-08-05 18:10:00,80.3,66.0,29.98,SSE,161,0.0,5.0,62,0.00,,,0.00,weatherlink.com 1.10,2013-08-05 22:10:00,
2013-08-05 18:40:00,78.4,68.0,29.98,ENE,72,1.0,2.0,70,0.00,,,0.00,weatherlink.com 1.10,2013-08-05 22:40:00,
2013-08-05 18:56:00,77.7,68.0,29.98,ESE,102,0.0,1.0,73,0.00,,,0.00,weatherlink.com 1.10,2013-08-05 22:56:00,
2013-08-05 19:26:00,76.6,69.0,29.98,East,79,0.0,1.0,76,0.00,,,0.00,weatherlink.com 1.10,2013-08-05 23:26:00,
2013-08-05 19:41:00,75.8,68.0,29.99,East,83,0.0,2.0,76,0.00,,,0.00,weatherlink.com 1.10,2013-08-05 23:41:00,
2013-08-05 19:56:00,75.1,68.0,29.99,East,83,0.0,1.0,78,0.00,,,0.00,weatherlink.com 1.10,2013-08-05 23:56:00,
2013-08-05 20:11:00,74.5,68.0,29.99,ENE,68,0.0,2.0,80,0.00,,,0.00,weatherlink.com 1.10,2013-08-06 00:11:00,
2013-08-05 20:26:00,73.8,67.0,29.99,ENE,68,0.0,1.0,80,0.00,,,0.00,weatherlink.com 1.10,2013-08-06 00:26:00,
2013-08-05 20:56:00,72.7,67.0,30.00,SE,138,0.0,1.0,81,0.00,,,0.00,weatherlink.com 1.10,2013-08-06 00:56:00,
2013-08-05 21:11:00,72.4,67.0,29.99,SE,138,0.0,1.0,83,0.00,,,0.00,weatherlink.com 1.10,2013-08-06 01:11:00,
2013-08-05 21:26:00,72.2,67.0,30.00,SE,138,0.0,2.0,83,0.00,,,0.00,weatherlink.com 1.10,2013-08-06 01:26:00,
2013-08-05 21:41:00,72.0,67.0,30.01,South,172,0.0,1.0,83,0.00,,,0.00,weatherlink.com 1.10,2013-08-06 01:41:00,
2013-08-05 21:56:00,71.7,67.0,30.01,South,172,0.0,1.0,86,0.00,,,0.00,weatherlink.com 1.10,2013-08-06 01:56:00,
2013-08-05 22:11:00,71.1,67.0,30.00,South,172,0.0,1.0,87,0.00,,,0.00,weatherlink.com 1.10,2013-08-06 02:11:00,
2013-08-05 22:26:00,70.5,67.0,30.00,NE,43,0.0,2.0,87,0.00,,,0.00,weatherlink.com 1.10,2013-08-06 02:26:00,
2013-08-05 22:41:00,70.1,67.0,30.00,NE,43,0.0,1.0,88,0.00,,,0.00,weatherlink.com 1.10,2013-08-06 02:41:00,
2013-08-05 22:56:00,69.9,67.0,30.01,NE,43,0.0,1.0,89,0.00,,,0.00,weatherlink.com 1.10,2013-08-06 02:56:00,
2013-08-05 23:11:00,69.7,67.0,30.00,NE,43,0.0,0.0,90,0.00,,,0.00,weatherlink.com 1.10,2013-08-06 03:11:00,
2013-08-05 23:26:00,69.5,66.0,29.99,NE,44,0.0,1.0,89,0.00,,,0.00,weatherlink.com 1.10,2013-08-06 03:26:00,
2013-08-05 23:41:00,69.3,65.0,29.99,SW,214,1.0,3.0,87,0.00,,,0.00,weatherlink.com 1.10,2013-08-06 03:41:00,
2013-08-05 23:56:00,69.3,66.0,29.99,SW,218,0.0,1.0,88,0.00,,,0.00,weatherlink.com 1.10,2013-08-06 03:56:00,